Pagrindinis puslapis
METAR-TAF:

METAR-TAF

Oro uostai :

Deering, Aliaska, Jungtinės Amerikos Valstijos

platuma: 66-05N, ilguma: 162-45W, Aukštis: 5 m

Dabartinis oras

Ataskaita buvo paskelbta 48 minutes, ne 03:53 UTC
Ramus vėjas
Temperatūra 6°C
Drėgmė 61%
Slėgis 997 hPa
Matomumas: 16.1 km
Giedras dangus

METAR: PADE 210353Z AUTO 00000KT 10SM CLR 06/M01 A2945 RMK AO2 SLP972 T00561006 TSNO

Laikas: 20:41 (04:41 UTC)


TAF: trūkstamas

Orai ataskaitas ir orų prognozės (METAR, TAF).

turimą stotys yra geltonos ir raudonos taškus žemėlapyje.

Perkelti pele per norėdami pamatyti stoties vardą.

Tada spustelėkite, norėdami matyti oro stebėjimo ir prognozės.

Norėdami pakeisti žemėlapį: spustelėkite ant žalios mygtukų su juodo kryžiaus žemyn,; žalią mygtuką su brūkšneliu, jei norite nutolinti; arba žalių rodyklių gretimoms žemėlapius.


METAR-TAF: